[Iaude] MPEC N133: 2024 NE3 [a=2.53,e=0.50,i=4.1,H=22.3]
    mpec at cfa.harvard.edu 
    mpec at cfa.harvard.edu
       
    Thu Jul 11 15:50:31 EDT 2024
    
    
  
M.P.E.C. 2024-N133                                Issued 2024 July 11, 19:48 UT
     The Minor Planet Electronic Circulars contain information on unusual
         minor planets, routine data on comets and natural satellites,
         and occasional editorial announcements.  They are published
    on behalf of Division F of the International Astronomical Union by the
          Minor Planet Center, Smithsonian Astrophysical Observatory,
                          Cambridge, MA 02138, U.S.A.
			  
             Prepared using the Tamkin Foundation Computer Network
                              MPC at CFA.HARVARD.EDU
            URL https://www.minorplanetcenter.net/    ISSN 1523-6714
                                    2024 NE3                                    
Observations:
     K24N03E  C2024 06 29.51010021 02 19.192-29 43 09.92         22.83GVEN133F51
     K24N03E  C2024 06 29.52045121 02 20.150-29 43 12.49         21.82GVEN133F51
     K24N03E  C2024 06 29.53079521 02 21.194-29 43 15.52         22.22GVEN133F51
     K24N03E  C2024 06 29.54113121 02 22.190-29 43 17.93         22.41GVEN133F51
     K24N03E* C2024 07 06.50902521 14 22.784-30 12 03.93         22.46wXEN133F52
     K24N03E  C2024 07 06.52017721 14 23.819-30 12 06.73         21.75wXEN133F52
     K24N03E  C2024 07 06.53133821 14 24.847-30 12 09.56         22.20wXEN133F52
     K24N03E  C2024 07 06.60507921 14 31.697-30 12 26.19         22.12GVEN133F52
     K24N03E  C2024 07 06.60573321 14 31.744-30 12 26.20         22.06GVEN133F52
     K24N03E 3C2024 07 08.59382621 17 53.648-30 20 18.05         21.52GVEN133T14
     K24N03E 3C2024 07 08.59480221 17 53.737-30 20 18.27         21.53GVEN133T14
     K24N03E 3C2024 07 08.59578021 17 53.830-30 20 18.50         21.61GVEN133T14
     K24N03E KC2024 07 09.37747 21 19 13.65 -30 23 21.5                VEN133691
     K24N03E KC2024 07 09.38709 21 19 14.54 -30 23 24.0                VEN133691
     K24N03E KC2024 07 09.39669 21 19 15.42 -30 23 27.0                VEN133691
Observer details:
691 Steward Observatory, Kitt Peak-Spacewatch.  Observer T. H. Bressi.  0.9-m
    f/3 reflector + CCD.
F51 Pan-STARRS 1, Haleakala.  Observers J. Herman, T. Lowe, P. Minguez, A.
    Schultz, I. Smith.  Measurers K. Chambers, T. de Boer, J. Fairlamb, H.
    Gao, M. Huber, C.-C. Lin, E. Magnier, Y. Ramanjooloo, R. Wainscoat, R.
    Weryk.  1.8-m Ritchey-Chretien + CCD.
F52 Pan-STARRS 2, Haleakala.  Observers J. Herman, T. Lowe, P. Minguez, A.
    Schultz, I. Smith.  Measurers K. Chambers, T. de Boer, J. Fairlamb, H.
    Gao, M. Huber, C.-C. Lin, E. Magnier, Y. Ramanjooloo, R. Wainscoat, R.
    Weryk.  1.8-m Ritchey-Chretien + CCD.
T14 Canada-France-Hawaii Telescope, Maunakea.  Observers R. Wainscoat, L.
    Wells, H. Flewelling.  Measurers R. Weryk, R. Wainscoat.  3.6-m f/4.1
    reflector + CCD.
Orbital elements:
2024 NE3                                                 Earth MOID = 0.2761 AU
Epoch 2024 Mar. 31.0 TT = JDT 2460400.5                 MPC                     
M 323.28731              (2000.0)            P               Q                  
n   0.24430364     Peri.  302.35993     +0.89613577     +0.44223166             
a   2.5342498      Node    31.43873     -0.37956387     +0.80703270             
e   0.4958928      Incl.    4.07205     -0.22993901     +0.39131748             
P   4.03           H   22.30          G   0.15           U   9                  
Residuals in seconds of arc
240629 F51  0.0   0.1+    240706 F52  0.0   0.1+    240708 T14  0.1-  0.4-
240629 F51  0.5-  0.2+    240706 F52  0.0   0.0     240708 T14  0.0   0.4-
240629 F51  0.2+  0.2-    240706 F52  0.1+  0.0     240709 691  0.0   0.6+
240629 F51  0.2+  0.1-    240706 F52  0.1-  0.1+    240709 691  0.1+  0.4+
240706 F52  0.0   0.2+    240708 T14  0.0   0.3-    240709 691  0.1+  0.4-
Ephemeris:
2024 NE3                 a,e,i = 2.53, 0.50, 4                   q = 1.2775
Date    TT    R. A. (2000) Decl.     Delta      r    Elong.  Phase     V
2024 06 11    20 29 15.7 -28 31 52   0.6047  1.5138   136.8    27.3    23.3
...
2024 06 26    20 56 09.1 -29 28 25   0.4849  1.4395   144.6    24.1    22.6
...
2024 07 04    21 10 05.3 -30 01 34   0.4324  1.4040   148.6    22.2    22.3
...
2024 07 10    21 20 16.0 -30 25 24   0.3983  1.3797   151.4    20.6    22.0
2024 07 11    21 21 56.4 -30 29 06   0.3931  1.3758   151.9    20.4    22.0
2024 07 12    21 23 36.3 -30 32 41   0.3879  1.3720   152.3    20.1    21.9
...
2024 07 18    21 33 26.5 -30 51 07   0.3597  1.3506   154.8    18.7    21.7
...
2024 07 26    21 46 04.3 -31 03 19   0.3287  1.3258   157.8    16.9    21.4
...
2024 08 10    22 07 34.0 -30 21 57   0.2903  1.2924   161.6    14.3    21.0
A. U. Tomatic                (C) Copyright 2024 MPC           M.P.E.C. 2024-N133
    
    
More information about the Iaude
mailing list